Regional Weather Roundup
Issued by NWS Little Rock, AR

Home | Current Version | Previous Version | Text Only | Print | Product List | Glossary Off
Versions: 1 2 3 4 5 6 7 8 9 10 11 12 13 14 15 16 17 18 19 20 21 22 23 24 25 26 27 28 29 30 31 32 33 34 35 36 37 38 39 40 41 42 43 44 45 46 47 48 49 50

000
ASUS44 KLZK 221005
RWRLZK

WEATHER ROUNDUP FOR ARKANSAS
NATIONAL WEATHER SERVICE LITTLE ROCK AR
500 AM CDT WED MAR 22 2017

NOTE: "FAIR" INDICATES FEW OR NO CLOUDS BELOW 12,000 FEET WITH NO
SIGNIFICANT WEATHER AND/OR OBSTRUCTIONS TO VISIBILITY.

ARZ001-003-010-029-221100-
NORTHWEST ARKANSAS

CITY           SKY/WX    TMP DP  RH WIND       PRES   REMARKS
FAYETTEVILLE   CLOUDY    48  45  89 E16G22    30.19F
FORT SMITH     CLOUDY    58  39  49 E16G28    30.15R
HARRISON       TSTM      44  42  93 SE12G20   30.23F FOG
BENTONVILLE    CLOUDY    46  39  76 E14G23    30.20F
ROGERS         CLOUDY    46  41  82 E14G22    30.21R
SILOAM SPGS    CLOUDY    46  37  71 E13G21    30.17F
HIGHFILL       CLOUDY    48  42  80 E15       30.19F
$$

ARZ004-005-016-221100-
NORTH CENTRAL ARKANSAS

CITY           SKY/WX    TMP DP  RH WIND       PRES   REMARKS
BATESVILLE     CLOUDY    46  43  87 NE10G17   30.24F
FLIPPIN        CLOUDY    46  39  76 E7        30.25S
MTN HOME       TSTM      45  43  93 CALM      30.27R
$$

ARZ040-041-221100-
WEST CENTRAL ARKANSAS

CITY           SKY/WX    TMP DP  RH WIND       PRES   REMARKS
MENA           CLOUDY    59  59 100 E9        30.15S
MOUNT IDA      PTCLDY    56  43  61 VRB5      30.15R
$$

ARZ009-017-025-026-028-221100-
NORTHEAST ARKANSAS

CITY           SKY/WX    TMP DP  RH WIND       PRES   REMARKS
CORNING        CLOUDY    48  37  66 NE13      30.29R
JONESBORO      LGT RAIN  48  44  86 N6        30.28R
NEWPORT        RAIN      47  45  93 NE12      30.26F
WALNUT RIDGE   CLOUDY    48  41  76 NE10      30.27F
BLYTHEVILLE    LGT RAIN  48  44  86 NE15      30.23F
$$

ARZ022-023-033-042-044-221100-
CENTRAL ARKANSAS

CITY           SKY/WX    TMP DP  RH WIND       PRES   REMARKS
LITTLE ROCK    CLOUDY    52  44  74 NE13      30.20S
N LITTLE ROCK    N/A     52  44  75 E13G21    30.19F
JACKSONVILLE   CLOUDY    53  45  72 NE14G28   30.20S
CONWAY           N/A     55  45  67 NE16G22   30.21R
SEARCY         LGT RAIN  50  44  80 NE18      30.24F
HOT SPRINGS    CLOUDY    56  42  59 E13G22    30.18R
RUSSELLVILLE   CLOUDY    55  41  59 NE10      30.22R
CLINTON        LGT RAIN  46  45  93 VRB5G16   30.28R
$$

ARZ036-221100-
EAST ARKANSAS

CITY           SKY/WX    TMP DP  RH WIND       PRES   REMARKS
WEST MEMPHIS   LGT RAIN  50  46  86 NE17G25   30.19R
$$

ARZ050-053-066-070-073-221100-
SOUTHWEST ARKANSAS

CITY           SKY/WX    TMP DP  RH WIND       PRES   REMARKS
ARKADELPHIA    FAIR      56  46  69 NE9       30.18R
CAMDEN         PTCLDY    55  48  76 NE6       30.15R
TEXARKANA      CLEAR     57  54  89 E9        30.11R
EL DORADO      CLEAR     57  53  86 NE7       30.13R
DE QUEEN       PTCLDY    58  54  86 E14G22    30.10R
$$

ARZ056-057-069-221100-
SOUTHEAST ARKANSAS

CITY           SKY/WX    TMP DP  RH WIND       PRES   REMARKS
PINE BLUFF     PTCLDY    54  45  71 N14       30.19R
STUTTGART      MOCLDY    54  37  54 N20G25    30.21R
MONTICELLO     CLEAR     55  50  83 NE9       30.14R

$$





USA.gov is the U.S. government's official web portal to all federal, state and local government web resources and services.